Change the Weather History Date:

Sunday, December 16, 2012

  Actual Average Record
Temperature  
Mean Temperature 42 °F 32 °F  
Max Temperature 49 °F 41 °F 70 °F (1889)
Min Temperature 34 °F 23 °F -11 °F (1989)
Degree Days  
Heating Degree Days 23 33  
Month to date heating degree days 309 492  
Since 1 July heating degree days 1276 1477  
Cooling Degree Days 0 0  
Month to date cooling degree days 0 0  
Year to date cooling degree days 1896 1249  
Moisture  
Dew Point 39 °F    
Average Humidity 91    
Maximum Humidity 100    
Minimum Humidity 82    
Precipitation  
Precipitation 0.00 in 0.08 in 0.86 in (1928)
Month to date precipitation 1.05 1.38  
Year to date precipitation 30.19 41.56  
Snow  
Snow 0.00 in 0.20 in 3.50 in (1911)
Month to date snowfall 0.0 2.0  
Since 1 July snowfall 0.0 2.9  
Snow Depth 0.00 in    
Sea Level Pressure  
Sea Level Pressure 29.73 in    
Wind  
Wind Speed 5 mph (NNW)    
Max Wind Speed 12 mph    
Max Gust Speed 14 mph    
Visibility 5 miles    
Events Fog    
T = Trace of Precipitation, MM = Missing Value Source: NWS Daily Summary

Daily Weather History Graph

Daily Weather History Graph

Search for Another Location

Airport or City:

Trip Planner

Search our weather history database for the weather conditions in past years. The results will help you decide how hot, cold, wet, or windy it might be!

Date:

Astronomy

Dec. 16, 2012 Rise Set
Actual Time 7:21 AM CST 4:48 PM CST
Civil Twilight 6:51 AM CST 5:18 PM CST
Nautical Twilight 6:17 AM CST 5:51 PM CST
Astronomical Twilight 5:45 AM CST 6:24 PM CST
Moon 9:56 AM CST (12/16) 9:01 PM CST (12/16)
Length of Visible Light 10h 27m
Length of Day
9h 27m
Waxing Crescent, 16% of the Moon is Illuminated
Dec 16
Waxing Crescent
Dec 19
First Quarter
Dec 28
Full
Jan 4
Last Quarter
Jan 11
New

Hourly Weather History & Observations

Time (CST) Temp. Windchill Dew Point Humidity Pressure Visibility Wind Dir Wind Speed Gust Speed Precip Events Conditions
12:22 AM 48.2 °F - 44.6 °F 87% 29.71 in 10.0 mi West 10.4 mph - N/A   Mostly Cloudy
12:46 AM 46.4 °F 42.4 °F 42.8 °F 87% 29.71 in 10.0 mi West 8.1 mph - N/A   Scattered Clouds
12:54 AM 46.9 °F - 43.0 °F 86% 29.71 in 10.0 mi West 5.8 mph - N/A   Partly Cloudy
1:54 AM 44.6 °F 42.2 °F 41.0 °F 87% 29.71 in 10.0 mi West 4.6 mph - N/A   Clear
2:54 AM 43.0 °F 39.5 °F 39.9 °F 89% 29.71 in 9.0 mi West 5.8 mph - N/A   Clear
3:54 AM 41.0 °F 37.1 °F 39.0 °F 93% 29.71 in 6.0 mi WSW 5.8 mph - N/A   Clear
4:54 AM 39.9 °F 35.8 °F 39.0 °F 97% 29.73 in 4.0 mi West 5.8 mph - N/A   Clear
5:54 AM 39.0 °F 34.8 °F 37.0 °F 93% 29.74 in 4.0 mi West 5.8 mph - N/A   Clear
6:24 AM 37.4 °F 32.8 °F 37.4 °F 100% 29.74 in 1.8 mi WSW 5.8 mph - N/A   Clear
6:54 AM 39.2 °F 35.9 °F 37.4 °F 93% 29.74 in 1.2 mi West 4.6 mph - N/A   Partly Cloudy
6:57 AM 39.2 °F 37.0 °F 37.4 °F 93% 29.74 in 0.8 mi West 3.5 mph - N/A   Mist
7:05 AM 37.4 °F 34.9 °F 37.4 °F 100% 29.74 in 0.2 mi WNW 3.5 mph - N/A Fog Fog
7:54 AM 35.1 °F - 34.0 °F 96% 29.76 in 0.2 mi Calm Calm - N/A Fog Fog
8:08 AM 33.8 °F - 33.8 °F 100% 29.75 in 0.2 mi Calm Calm - N/A Fog Fog
8:54 AM 37.0 °F 34.5 °F 36.0 °F 96% 29.76 in 0.2 mi NNW 3.5 mph - N/A Fog Fog
9:23 AM 39.2 °F 35.0 °F 39.2 °F 100% 29.75 in 0.2 mi North 5.8 mph - N/A Fog Fog
9:54 AM 39.9 °F 35.1 °F 39.0 °F 97% 29.76 in 0.2 mi North 6.9 mph - N/A Fog Fog
10:17 AM 39.2 °F 34.2 °F 39.2 °F 100% 29.75 in 0.2 mi NNW 6.9 mph - N/A Fog Fog
10:54 AM 39.0 °F 35.7 °F 39.0 °F 100% 29.75 in 0.2 mi NNW 4.6 mph - N/A Fog Fog
11:54 AM 39.9 °F 33.9 °F 39.0 °F 97% 29.72 in 0.5 mi NNW 9.2 mph - N/A Fog Fog
12:01 PM 39.2 °F 35.0 °F 39.2 °F 100% 29.71 in 0.2 mi North 5.8 mph - N/A Fog Fog
12:14 PM 39.2 °F 35.0 °F 39.2 °F 100% 29.70 in 0.5 mi North 5.8 mph - N/A Fog Fog
12:36 PM 39.2 °F 37.0 °F 39.2 °F 100% 29.68 in 0.2 mi NE 3.5 mph - N/A Fog Fog
12:54 PM 41.0 °F - 39.9 °F 96% 29.69 in 1.2 mi Calm Calm - N/A   Overcast
1:25 PM 41.0 °F 37.1 °F 41.0 °F 100% 29.68 in 2.5 mi North 5.8 mph - N/A   Overcast
1:32 PM 42.8 °F 39.3 °F 41.0 °F 93% 29.68 in 3.0 mi North 5.8 mph - N/A   Overcast
1:54 PM 42.1 °F 38.4 °F 39.9 °F 92% 29.69 in 5.0 mi North 5.8 mph - N/A   Overcast
2:54 PM 44.1 °F 42.5 °F 39.9 °F 85% 29.69 in 7.0 mi NE 3.5 mph - N/A   Overcast
2:59 PM 44.6 °F 43.1 °F 39.2 °F 81% 29.68 in 8.0 mi NE 3.5 mph - N/A   Overcast
3:54 PM 45.0 °F 42.6 °F 39.0 °F 80% 29.71 in 8.0 mi NE 4.6 mph - N/A   Overcast
3:57 PM 44.6 °F 42.2 °F 39.2 °F 81% 29.70 in 8.0 mi NNE 4.6 mph - N/A   Overcast
4:54 PM 44.1 °F 40.8 °F 39.0 °F 82% 29.72 in 6.0 mi NNE 5.8 mph - N/A   Haze
5:54 PM 43.0 °F 39.5 °F 39.0 °F 86% 29.72 in 7.0 mi North 5.8 mph - N/A   Overcast
6:54 PM 43.0 °F 38.2 °F 37.9 °F 82% 29.75 in 7.0 mi NNE 8.1 mph - N/A   Overcast
7:54 PM 42.1 °F 36.6 °F 37.9 °F 85% 29.76 in 8.0 mi North 9.2 mph - N/A   Overcast
8:54 PM 42.1 °F 38.4 °F 39.0 °F 89% 29.77 in 9.0 mi NNE 5.8 mph - N/A   Overcast
9:54 PM 41.0 °F 36.4 °F 37.9 °F 89% 29.77 in 9.0 mi NE 6.9 mph - N/A   Overcast
10:54 PM 41.0 °F 37.1 °F 37.0 °F 86% 29.76 in 9.0 mi NNE 5.8 mph - N/A   Overcast
11:54 PM 39.9 °F 35.8 °F 37.0 °F 89% 29.77 in 9.0 mi NNE 5.8 mph - N/A   Overcast